Cecil Field, FL

1:28 PM EDT on June 26, 2017 (GMT -0400)
Cecil

Weather History for KVQQ - March, 2012

Change the Weather History Date:

Monday, March 26, 2012

  Actual Average (KNIP) Record (KNIP)
Temperature  
Mean Temperature 63 °F -  
Max Temperature 80 °F 73 °F 87 °F (2002)
Min Temperature 46 °F 56 °F 41 °F (2013)
Degree Days  
Heating Degree Days 2    
Growing Degree Days 13 (Base 50)    
Moisture  
Dew Point 51 °F    
Average Humidity 78    
Maximum Humidity 100    
Minimum Humidity 37    
Precipitation  
Precipitation 0.00 in - - ()
Sea Level Pressure  
Sea Level Pressure 29.95 in    
Wind  
Wind Speed 1 mph (North)    
Max Wind Speed 13 mph    
Max Gust Speed 17 mph    
Visibility 10 miles    
Events      
Averages and records for this station are not official NWS values.
T = Trace of Precipitation, MM = Missing Value Source: NWS Daily Summary

Daily Weather History Graph

Daily Weather History Graph

Search for Another Location

Airport or City:

Trip Planner

Search our weather history database for the weather conditions in past years. The results will help you decide how hot, cold, wet, or windy it might be!

Date:

Astronomy

Mar. 26, 2012 Rise Set
Actual Time 7:23 AM EDT 7:42 PM EDT
Civil Twilight 6:59 AM EDT 8:07 PM EDT
Nautical Twilight 6:31 AM EDT 8:35 PM EDT
Astronomical Twilight 6:03 AM EDT 9:03 PM EDT
Moon 9:30 AM EDT 11:32 PM EDT
Length of Visible Light 13h 07m
Length of Day
12h 19m
Waxing Crescent, 14% of the Moon is Illuminated
Mar 26
Waxing Crescent
Mar 30
First Quarter
Apr 6
Full
Apr 13
Last Quarter
Apr 21
New

Hourly Weather History & Observations

Time (EDT) Temp. Heat Index Dew Point Humidity Pressure Visibility Wind Dir Wind Speed Gust Speed Precip Events Conditions
12:15 AM 50.0 °F - 48.2 °F 94% 29.90 in 10.0 mi Calm Calm - N/A   Clear
12:35 AM 51.8 °F - 48.2 °F 88% 29.90 in 10.0 mi Calm Calm - N/A   Clear
12:55 AM 50.0 °F - 48.2 °F 94% 29.90 in 10.0 mi Calm Calm - N/A   Clear
1:15 AM 50.0 °F - 48.2 °F 94% 29.90 in 10.0 mi Calm Calm - N/A   Clear
1:35 AM 50.0 °F - 48.2 °F 94% 29.90 in 10.0 mi Calm Calm - N/A   Clear
1:55 AM 50.0 °F - 48.2 °F 94% 29.90 in 10.0 mi Calm Calm - N/A   Clear
2:15 AM 50.0 °F - 48.2 °F 94% 29.90 in 10.0 mi Calm Calm - N/A   Clear
2:35 AM 50.0 °F - 48.2 °F 94% 29.90 in 10.0 mi Calm Calm - N/A   Clear
2:55 AM 48.2 °F - 48.2 °F 100% 29.90 in 10.0 mi Calm Calm - N/A   Clear
3:15 AM 50.0 °F - 48.2 °F 94% 29.90 in 10.0 mi Calm Calm - N/A   Clear
3:55 AM 53.6 °F - 48.2 °F 82% 29.90 in 10.0 mi Calm Calm - N/A   Clear
4:15 AM 50.0 °F - 48.2 °F 94% 29.90 in 10.0 mi Calm Calm - N/A   Clear
4:35 AM 50.0 °F - 48.2 °F 94% 29.90 in 10.0 mi Calm Calm - N/A   Clear
4:55 AM 48.2 °F - 46.4 °F 93% 29.90 in 10.0 mi Calm Calm - N/A   Clear
5:15 AM 48.2 °F - 46.4 °F 93% 29.91 in 10.0 mi Calm Calm - N/A   Clear
5:35 AM 48.2 °F - 46.4 °F 93% 29.91 in 10.0 mi Calm Calm - N/A   Clear
5:55 AM 48.2 °F - 46.4 °F 93% 29.91 in 10.0 mi Calm Calm - N/A   Clear
6:50 AM 46.4 °F - 46.4 °F 100% 29.93 in 10.0 mi Calm Calm - N/A   Clear
7:50 AM 46.4 °F - 46.4 °F 100% 29.95 in 10.0 mi Calm Calm - N/A   Clear
8:50 AM 57.2 °F - 53.6 °F 88% 29.97 in 10.0 mi WNW 4.6 mph - N/A   Clear
9:50 AM 66.2 °F - 51.8 °F 60% 29.99 in 10.0 mi Calm Calm - N/A   Clear
10:50 AM 73.4 °F - 53.6 °F 50% 30.01 in 10.0 mi Calm Calm - N/A   Clear
11:50 AM 75.2 °F - 51.8 °F 44% 30.01 in 10.0 mi North 9.2 mph - N/A   Clear
12:50 PM 77.0 °F - 51.8 °F 41% 30.01 in 10.0 mi NNE 12.7 mph 17.3 mph N/A   Clear
1:50 PM 77.0 °F - 51.8 °F 41% 29.99 in 10.0 mi NW 8.1 mph - N/A   Partly Cloudy
2:50 PM 80.6 °F 80.3 °F 53.6 °F 39% 29.96 in 10.0 mi Variable 5.8 mph - N/A   Scattered Clouds
3:50 PM 80.6 °F 80.3 °F 53.6 °F 39% 29.94 in 10.0 mi Variable 5.8 mph - N/A   Scattered Clouds
4:50 PM 80.6 °F - 51.8 °F 37% 29.93 in 10.0 mi North 8.1 mph - N/A   Scattered Clouds
5:50 PM 80.6 °F 80.3 °F 53.6 °F 39% 29.94 in 10.0 mi NNE 9.2 mph - N/A   Clear
6:50 PM 78.8 °F - 55.4 °F 44% 29.95 in 10.0 mi ENE 8.1 mph - N/A   Clear
7:50 PM 71.6 °F - 57.2 °F 60% 29.96 in 10.0 mi ESE 5.8 mph - N/A   Clear
8:55 PM 68.0 °F - 57.2 °F 68% 30.00 in 10.0 mi Calm Calm - N/A   Clear
9:15 PM 66.2 °F - 57.2 °F 73% 30.01 in 10.0 mi Calm Calm - N/A   Clear
9:35 PM 66.2 °F - 57.2 °F 73% 30.02 in 10.0 mi Calm Calm - N/A   Clear
9:55 PM 62.6 °F - 57.2 °F 82% 30.03 in 10.0 mi Calm Calm - N/A   Clear
10:15 PM 60.8 °F - 57.2 °F 88% 30.03 in 10.0 mi Calm Calm - N/A   Clear
10:55 PM 57.2 °F - 55.4 °F 94% 30.04 in 10.0 mi Calm Calm - N/A   Clear
11:15 PM 55.4 °F - 55.4 °F 100% 30.05 in 10.0 mi Calm Calm - N/A   Clear
11:55 PM 55.4 °F - 55.4 °F 100% 30.05 in 10.0 mi Calm Calm - N/A   Clear